Home   Weather   Oshawa   Past weeks

Flag for Canada Past Weather in Oshawa, Ontario, Canada — Yesterday and Last 2 Weeks

Now
36 °F

Overcast.


Feels Like: 26 °F
Forecast: 32 / 39 °F
Wind: 16 mph from West

Location: Toronto Buttonville

Current Time: Dec 7, 2016 at 9:30:41 am

Latest Report: Dec 7, 2016 at 9:00 am


Visibility: 15 mi

Pressure: 29.93 "Hg

Humidity: 60%

Dew Point: 23 °F

Location of OshawaLocation

Past Weather in Oshawa — Graph

°F

Oshawa Temperature Yesterday

Maximum temperature yesterday: 39 °F (at 11:50 am)
Minimum temperature yesterday: 30 °F (at 6:00 am)
Average temperature yesterday: 36 °F

High & Low Weather Summary for the Past Weeks

 TemperatureHumidityPressure
High57 °F (Nov 29, 2:00 pm)100% (Nov 24, 2:00 am)30.40 "Hg (Nov 24, 2:00 am)
Low23 °F (Nov 23, 4:00 am)60% (Nov 22, 3:00 pm)29.43 "Hg (Nov 30, 10:00 pm)
Average38 °F83%30.00 "Hg
* Reported Nov 22 8:00 am — Dec 7 8:00 am, Oshawa, Weather by CustomWeather, © 2016

Note: Actual official high and low records may vary slightly from our data, if they occured in-between our weather recording intervals... More about our weather records

Advertising

Oshawa Weather History for the Previous 24 Hours

Scroll right to see more
 ConditionsComfort  
Time TempWeatherWind HumidityBarometerVisibility
8:00 am
Wed, Dec 7
36 °FScattered clouds.10 mph60%29.90 "Hg15 mi
7:00 am36 °FPassing clouds.7 mph70%29.88 "Hg12 mi
6:00 am36 °FPassing clouds.12 mph75%29.85 "Hg12 mi
5:00 am36 °FPassing clouds.7 mph93%29.83 "Hg12 mi
4:00 am37 °FMostly cloudy.7 mph87%29.80 "Hg10 mi
3:00 am37 °FLow clouds.6 mph93%29.78 "Hg10 mi
2:45 am37 °FLow clouds.3 mph93%29.78 "Hg8 mi
2:00 am37 °FFog.5 mph93%29.76 "Hg5 mi
1:00 am36 °FDrizzle. Fog.6 mph100%29.76 "Hg2 mi
12:00 am36 °FLight rain. Mostly cloudy.8 mph100%29.76 "Hg10 mi
11:00 pm
Tue, Dec 6
37 °FDrizzle. Mostly cloudy.8 mph93%29.76 "Hg3 mi
10:00 pm36 °FLight rain. Low clouds.12 mph93%29.78 "Hg10 mi
9:00 pm36 °FLight rain. Low clouds.20 mph93%29.77 "Hg12 mi
7:00 pm34 °FLight rain. Low clouds.16 mph93%29.81 "Hg10 mi
6:00 pm39 °FLight rain. Overcast.17 mph81%29.84 "Hg12 mi
5:00 pm39 °FMostly cloudy.21 mph75%29.85 "Hg15 mi
4:00 pm39 °FMore clouds than sun.14 mph81%29.83 "Hg15 mi
2:00 pm39 °FMostly cloudy.16 mph81%29.87 "Hg15 mi
12:00 pm39 °FMostly cloudy.14 mph87%29.95 "Hg15 mi
11:50 am39 °FMostly cloudy.14 mph87%29.96 "Hg15 mi
11:00 am37 °FMostly cloudy.8 mph87%29.98 "Hg12 mi
10:00 am36 °FBroken clouds.7 mph87%30.04 "Hg10 mi
9:00 am34 °FBroken clouds.8 mph87%30.04 "Hg10 mi
Weather by CustomWeather, © 2016

See weather overviewHow to use our weather pages